Zurück zum Katalog

STARLINK-3140

AktivKommunikationVLEO
NORAD 49460·PAYLOAD·🇺🇸 United States

Gestartet Nov 13, 2021 von Cape Canaveral Space Force Station

Loading…

Nächste Überflüge (nächste 24 Stunden)

TLE

AktuellSource: CelesTrak SupGP

Epoche: Sep 14, 2026, 13:46 UTC

1 49460C 21104BE  26257.57409722 -.00007897  00000+0 -23339-3 0  2571
2 49460  53.1588  79.0755 0001437  96.8302  75.8840 15.34386256    17

Verfolge STARLINK-3140 in Echtzeit mit AllMySat

Download on the App Store